Regional Weather Roundup
Issued by NWS Charleston, SC

Current Version | Previous Version | Graphics & Text | Print | Product List | Glossary On
Versions: 1 2 3 4 5 6 7 8 9 10 11 12 13 14 15 16 17 18 19 20 21 22 23 24 25 26 27 28 29 30 31 32 33 34 35 36 37 38 39 40 41 42 43 44 45 46 47 48 49 50
000 ASUS42 KCHS 192327 RWRCHS REGIONAL WEATHER ROUNDUP NATIONAL WEATHER SERVICE CHARLESTON SC 600 PM EST SUN FEB 19 2017 NOTE: "FAIR" INDICATES FEW OR NO CLOUDS BELOW 12,000 FEET WITH NO SIGNIFICANT WEATHER AND/OR OBSTRUCTIONS TO VISIBILITY. NOT ALL STATIONS ARE QUALITY CONTROLLED. USE DATA WITH CAUTION... ESPECIALLY DEWPOINT OBSERVATIONS. SCZ027-030-031-034>040-042>050-200000- ...SOUTHEAST SOUTH CAROLINA... CITY SKY/WX TMP DP RH WIND PRES REMARKS N CHARLESTON CLEAR 68 47 46 N9 30.01R WATERFRONT PRK N/A 73 50 44 NW5 29.98R MOUNT PLEASANT LGT RAIN 66 48 52 CALM 30.02R JOHNS ISLAND FAIR 68 50 52 NW3 30.02R PINOPOLIS N/A 64 55 72 NW7 29.91S MONCKS CORNER FAIR 66 45 45 CALM 30.02R SUMMERVILLE FAIR 68 46 45 CALM 30.03R BEAUFORT MCAS CLEAR 72 48 42 NW5 30.02R BEAUFORT ARPT FAIR 70 50 49 NW5 30.02R HILTON HEAD IS CLEAR 73 55 53 CALM 30.03R WALTERBORO CLEAR 68 46 45 NW3 30.03R ALLENDALE FAIR 68 48 49 CALM 30.03R ...SOUTHERN MIDLANDS AND PEE DEE... CITY SKY/WX TMP DP RH WIND PRES REMARKS GEORGETOWN FAIR 64 46 52 NW3 30.01R KINGSTREE FAIR 63 46 55 NW5 30.02R ORANGEBURG CLEAR 70 48 45 NW7 30.02R BARNWELL FAIR 68 52 56 CALM 30.04R AIKEN FAIR 64 48 55 CALM 30.08R MANNING FAIR 66 46 48 MISG 30.02R COLUMBIA CLEAR 68 48 48 W6 30.03R SUMTER CLEAR 68 47 47 NW7 30.00R FLORENCE CLEAR 68 47 46 NW8 30.01R MYRTLE BEACH CLEAR 70 46 43 NW7 29.99S N MYRTLE BEACH CLEAR 68 47 46 CALM 29.98R $$ GAZ063-065-086>088-099>101-113>116-118-119-134>141-150-200000- ...SOUTHEAST GEORGIA... CITY SKY/WX TMP DP RH WIND PRES REMARKS SAVANNAH ARPT PTCLDY 73 48 41 NW6 30.03R HUNTER AAF CLEAR 72 54 51 NW6 30.00R FORT STEWART CLEAR 73 52 47 CALM 30.01R STATESBORO CLEAR 67 54 61 W3 30.05R SYLVANIA CLEAR N/A N/A N/A NW3 30.05R CLAXTON FAIR N/A N/A N/A CALM 30.05R ...CSRA...CENTRAL AND FAR SOUTHEAST GEORGIA... CITY SKY/WX TMP DP RH WIND PRES REMARKS THOMSON CLEAR 70 55 57 CALM 30.10R AUGUSTA-BUSH CLEAR 72 48 42 N7 30.03R AUGUSTA-DANIEL CLEAR 72 46 39 NW7 30.05R SWAINSBORO MOCLDY 68 52 56 CALM 30.07R VIDALIA PTCLDY 70 55 60 CALM 30.07R EASTMAN FAIR 70 39 31 CALM 30.10R HAZLEHURST CLOUDY 72 54 53 CALM 30.05S ALMA PTCLDY 73 52 47 NW7 30.04R WAYCROSS CLEAR 73 56 54 NW6 30.05R JESUP FAIR 70 54 56 NW3 30.05R BAXLEY MOCLDY 72 57 60 NW3 30.05R BRUNSWICK PTCLDY 72 57 60 CALM 30.05R SAINT SIMONS MOCLDY 66 59 78 S8 30.03R $$ SCZ027-028-034-036>038-045-046-048>050-GAZ119-141-200000- ...LAKE AND SUPPLEMENTAL COASTAL OBSERVATIONS... STATION/POSITION TIME TEMP WIND PRES WAVE SWELL AIR SEA DIR/SP/G HT/PER HT/PER/DIR (UTC) (F) (DEG/KT/KT) (MB) (FT/S) (FT/S/D) WINYAH BAY 2245 69 310/ 5 1015.0S LAKE MURRAY 2320 64 CALM 1016.9R ACE BASIN NERRS 2230 74 310/ 1 1016.0R FORT PULASKI 2300 71 61 310/ 6/ 7 1016.8 SAPELO ISLAND 2300 66 150/ 5 1017.0 $$ ANZ835-935-AMZ111-154-330-350-352-354-370-450-454-472-200000- ...C-MAN AND BUOY OBSERVATIONS... STATION/POSITION TIME TEMP WIND PRES WAVE SWELL AIR SEA DIR/SP/G HT/PER HT/PER/DIR (UTC) (F) (DEG/KT/KT) (MB) (FT/S) (FT/S/D) BUOY 41004 2250 67 69 250/ 12/ 14 1015.4R 2/ 7 2/120/ 7 BUOY 41008 2250 63 63 190/ 8/ 8 1016.7R 1 FOLLY BEACH CMAN 2300 69 330/ 4/ 5 1016.9R CAPERS NEARSHORE 2308 65 60 340/ 8/ 10 1016.0R FRIPP NEARSHORE 2308 63 61 210/ 6/ 8 1016.2R STATION/POSITION TIME TEMP WIND PRES WAVE SWELL AIR SEA DIR/SP/G HT/PER HT/PER/DIR (UTC) (F) (DEG/KT/KT) (MB) (FT/S) (FT/S/D) 5E ST. MARYS GA 2300 64 N/A 1 FRYING PAN BUOY 2310 63 64 260/ 12/ 14 1015.0 BUOY 41025 2250 61 67 350/ 6/ 8 1014.0R 2/ 7 2/160/ 7 CAPE LOOKOUT NC 2300 59 CALM / 1 1014.1R BUOY 41002 2250 69 71 340/ 16/ 19 1013.3R 4/ 6 2/120/ 9 BUOY 41010 NOT AVBL ST AUGUSTINE FL 2300 66 68 120/ 7/ 8 1018.2R $$

USA.gov is the U.S. government's official web portal to all federal, state and local government web resources and services.